Location: Banff
(51.1667°N, 115.5667°W)
Time: 10:15:31
(UTC+00:00)

Explorer 11/Cluster Stage 4 - All Passes

Search period start: 30 November 2020 00:00
Search period end: 10 December 2020 00:00
Orbit: 467 x 1258 km, 28.8° (Epoch: 29 November)

Date Brightness Start Highest point End Pass type
(mag) Time Alt. Az. Time Alt. Az. Time Alt. Az.
04 Dec - 05:05:53 10° S 05:06:26 10° S 05:06:59 10° S visible
05 Dec - 03:06:40 10° S 03:07:49 10° S 03:08:56 10° SSE visible
05 Dec - 04:53:46 10° SSW 04:55:14 11° S 04:56:41 10° S visible
06 Dec - 02:54:20 10° S 02:56:35 11° S 02:58:47 10° SSE visible
06 Dec - 04:42:09 10° SSW 04:44:03 11° S 04:45:52 10° S visible
07 Dec - 02:42:29 10° SSW 02:45:21 12° S 02:48:08 10° SSE visible
07 Dec - 04:30:44 10° SSW 04:32:50 11° S 04:34:51 10° S visible
08 Dec - 02:30:51 10° SSW 02:34:06 13° S 02:37:16 10° SSE visible
08 Dec - 04:19:29 10° SSW 04:21:35 11° SSW 04:23:39 10° S visible
09 Dec - 02:19:22 10° SSW 02:22:50 13° S 02:26:16 10° SSE visible
09 Dec - 04:08:24 10° SSW 04:10:20 11° SSW 04:12:15 10° S visible
